Fort Lauderdale, FL

2:52 AM EDT on March 29, 2017 (GMT -0400)
Fort Lauderdale Executive

Weather History for KFXE - August, 2014

Change the Weather History Date:

Tuesday, August 26, 2014

  Actual Average Record
Temperature  
Mean Temperature 86 °F -  
Max Temperature 91 °F 92 °F 96 °F (1982)
Min Temperature 82 °F 74 °F 64 °F (1950)
Cooling Degree Days 21    
Growing Degree Days 36 (Base 50)    
Moisture  
Dew Point 73 °F    
Average Humidity 67    
Maximum Humidity 77    
Minimum Humidity 57    
Precipitation  
Precipitation 0.00 in - - ()
Sea Level Pressure  
Sea Level Pressure 29.85 in    
Wind  
Wind Speed 12 mph (NE)    
Max Wind Speed 18 mph    
Max Gust Speed 26 mph    
Visibility 10 miles    
Events Rain    
Averages and records for this station are not official NWS values.
T = Trace of Precipitation, MM = Missing Value Source: NWS Daily Summary

Daily Weather History Graph

Daily Weather History Graph

Search for Another Location

Airport or City:

Trip Planner

Search our weather history database for the weather conditions in past years. The results will help you decide how hot, cold, wet, or windy it might be!

Date:

Astronomy

Aug. 26, 2014 Rise Set
Actual Time 6:58 AM EDT 7:46 PM EDT
Civil Twilight 6:34 AM EDT 8:10 PM EDT
Nautical Twilight 6:06 AM EDT 8:37 PM EDT
Astronomical Twilight 5:38 AM EDT 9:06 PM EDT
Moon 7:47 AM EDT (8/26) 8:19 PM EDT (8/26)
Length of Visible Light 13h 35m
Length of Day
12h 48m
New Moon, 1% of the Moon is Illuminated
Aug 26
New Moon
Sep 2
First Quarter
Sep 8
Full
Sep 15
Last Quarter
Sep 24
New

Hourly Weather History & Observations

Time (EDT) Temp. Heat Index Dew Point Humidity Pressure Visibility Wind Dir Wind Speed Gust Speed Precip Events Conditions
12:53 AM 84.0 °F 91.2 °F 73.9 °F 72% 29.81 in 10.0 mi NE 11.5 mph - N/A   Partly Cloudy
1:53 AM 84.0 °F 91.2 °F 73.9 °F 72% 29.80 in 10.0 mi NE 11.5 mph - N/A   Scattered Clouds
2:53 AM 82.9 °F 89.4 °F 73.9 °F 74% 29.80 in 10.0 mi NE 10.4 mph - N/A   Partly Cloudy
3:53 AM 82.9 °F 90.2 °F 75.0 °F 77% 29.78 in 10.0 mi NE 10.4 mph - N/A   Partly Cloudy
4:53 AM 82.4 °F 88.2 °F 73.4 °F 74% 29.77 in 10.0 mi NE 10.4 mph - N/A   Partly Cloudy
5:53 AM 82.9 °F 89.4 °F 73.9 °F 74% 29.79 in 10.0 mi NNE 8.1 mph - N/A   Partly Cloudy
6:53 AM 82.9 °F 89.4 °F 73.9 °F 74% 29.81 in 10.0 mi NE 8.1 mph - 0.00 in   Scattered Clouds
7:53 AM 84.2 °F 90.9 °F 73.4 °F 70% 29.83 in 10.0 mi NE 10.4 mph - N/A   Scattered Clouds
8:53 AM 86.0 °F 93.8 °F 73.9 °F 67% 29.84 in 10.0 mi NE 15.0 mph 23.0 mph N/A   Partly Cloudy
9:53 AM 84.0 °F 91.9 °F 75.0 °F 74% 29.86 in 8.0 mi NE 13.8 mph 23.0 mph 0.00 in Rain Light Rain
10:53 AM 87.8 °F 97.6 °F 75.2 °F 66% 29.86 in 10.0 mi ENE 18.4 mph 25.3 mph N/A   Scattered Clouds
11:53 AM 88.0 °F 96.5 °F 73.9 °F 63% 29.87 in 10.0 mi NE 15.0 mph 26.5 mph N/A   Scattered Clouds
12:53 PM 88.0 °F 96.5 °F 73.9 °F 63% 29.87 in 10.0 mi NE 16.1 mph 25.3 mph N/A   Partly Cloudy
1:53 PM 90.0 °F 97.9 °F 73.0 °F 57% 29.88 in 10.0 mi NE 16.1 mph 23.0 mph N/A   Scattered Clouds
2:53 PM 90.0 °F 97.9 °F 73.0 °F 57% 29.86 in 10.0 mi NNE 13.8 mph 24.2 mph N/A   Scattered Clouds
3:53 PM 89.1 °F 97.0 °F 73.0 °F 59% 29.86 in 10.0 mi NE 16.1 mph 24.2 mph N/A   Partly Cloudy
4:53 PM 87.8 °F 93.8 °F 71.6 °F 58% 29.85 in 10.0 mi ENE 13.8 mph - N/A   Partly Cloudy
5:53 PM 88.0 °F 94.7 °F 72.0 °F 59% 29.86 in 10.0 mi NE 13.8 mph - N/A   Mostly Cloudy
6:53 PM 86.0 °F 92.2 °F 72.0 °F 63% 29.86 in 10.0 mi NE 12.7 mph 20.7 mph N/A   Partly Cloudy
7:53 PM 84.9 °F 90.7 °F 72.0 °F 65% 29.87 in 10.0 mi NE 10.4 mph - N/A   Clear
8:53 PM 84.0 °F 89.6 °F 72.0 °F 67% 29.89 in 10.0 mi NNE 9.2 mph - N/A   Clear
9:53 PM 84.0 °F 90.2 °F 73.0 °F 69% 29.91 in 10.0 mi NE 9.2 mph - N/A   Mostly Cloudy
10:53 PM 84.0 °F 89.0 °F 71.1 °F 65% 29.91 in 10.0 mi NE 8.1 mph - N/A   Partly Cloudy
11:53 PM 82.9 °F 87.5 °F 71.1 °F 67% 29.91 in 10.0 mi NNE 5.8 mph - N/A   Partly Cloudy